Content
SEND FEEDBACK

Daily
Averages
Monthly
Summary
United States of America

NEW PALTZ, NEW YORK


Home > North America > United States > New York
Elevation: 1243 feet     Latitude: 41 08N     Longitude: 074 33W

WEATHER
 
SELECT A DAY
Number of Records: 175,492;   Date Range: 1/1/95 - 8/12/14
 
SHARE

PRINT THIS DATA

[ ← Previous Day ]
WEATHER ALMANAC - OCTOBER 22, 2013
[ Next Day → ]
[ °C ]   °F
Weather ElementAverageHighLow
Temperature53.5 °F63 °F (10:56 am)44.1 °F (4:56 am)
Dewpoint44.8 °F50 °F (3:56 pm)39 °F (11:56 pm)
Humidity73.7 %93 % (7:56 am)48 % (10:56 am)
Barometer29.82 in29.96 in (1:56 am)29.75 in (3:56 pm)
Wind Speed3.5 mph12.7 mph (1:56 pm)
Wind Gust16.1 mph (1:56 pm)
Weather ElementAverage
Visibility9.8 mi
Wind DirectionESE (116.5 °)

Weather ElementTotal
Precipitation---
Heating Degree Days11.5 (Base 65)
Growing Degree Days3.6 (Base 50)
Averaged from 23 records on October 22, 2013
WEATHER CONDITIONS BREAKOUT
WIND DIRECTION BREAKOUT
WEATHER BY HOUR - OCTOBER 22, 2013
[ °C ]   °F
Local TimeTemperatureDewpointHumidityBarometerVisibilityWind DirectionWind SpeedGust SpeedPrecipitationEventsConditions
1:56 AM52.0 °F44.1 °F74 %29.96 in10.0 miCalmClear
2:56 AM46.9 °F44.1 °F90 %29.93 in10.0 miCalmClear
3:56 AM46.0 °F43.0 °F89 %29.91 in10.0 miCalmClear
4:56 AM44.1 °F41.0 °F89 %29.91 in9.0 miCalmClear
5:56 AM46.0 °F43.0 °F89 %29.88 in10.0 miCalmClear
6:56 AM48.9 °F46.0 °F90 %29.88 in10.0 miCalmClear
7:56 AM48.9 °F46.9 °F93 %29.86 in7.0 miCalmClear
8:56 AM55.9 °F48.0 °F75 %29.84 in10.0 miCalmClear
9:56 AM59.0 °F48.9 °F69 %29.84 in10.0 miSSW (200°)6.9 mphScattered Clouds
10:56 AM63.0 °F43.0 °F48 %29.82 in10.0 miSW (220°)9.2 mphMostly Cloudy
11:56 AM62.1 °F45.0 °F53 %29.80 in10.0 miSW (230°)9.2 mphMostly Cloudy
12:56 PM62.1 °F46.0 °F56 %29.78 in10.0 miVariable3.5 mphMostly Cloudy
1:56 PM62.1 °F45.0 °F53 %29.77 in10.0 miWest (280°)12.7 mph16.1 mphMostly Cloudy
2:56 PM60.1 °F48.9 °F67 %29.78 in10.0 miWest (260°)4.6 mph0.00 inRainLight Rain
3:56 PM57.9 °F50.0 °F75 %29.75 in10.0 miCalm0.00 inMostly Cloudy
4:56 PM59.0 °F48.0 °F67 %29.75 in10.0 miWest (280°)4.6 mphScattered Clouds
5:56 PM57.0 °F45.0 °F64 %29.76 in10.0 miWSW (250°)3.5 mphPartly Cloudy
6:56 PM51.1 °F46.0 °F83 %29.77 in10.0 miCalmClear
7:56 PM51.1 °F45.0 °F80 %29.78 in10.0 miCalmClear
8:56 PM53.1 °F43.0 °F69 %29.78 in10.0 miCalmClear
9:56 PM51.1 °F42.1 °F71 %29.78 in10.0 miWest (280°)5.8 mphClear
10:56 PM48.0 °F39.9 °F74 %29.80 in10.0 miNorth (350°)10.4 mphClear
11:56 PM46.0 °F39.0 °F76 %29.81 in10.0 miNNW (330°)10.4 mphClear
Hourly data recorded from KHPN, located miles away from New Paltz, New York







STORIES FROM OUR PARTNERS